Flag for Bosnia-Herzegovina Weather past 2 weeks in Sarajevo, Bosnia-Herzegovina

Now
34 °F

Fog.


Feels Like: 34 °F
Forecast: 28 / 43 °F
Wind: 1 mph from North

Location: Sarajevo / Butmir

Current Time: Dec 20, 2014 at 6:30:51 PM

Latest Report: Dec 20, 2014 at 6:00 PM


Visibility: 2 mi

Pressure: 30.15 "Hg

Humidity: 93%

Dew point: 32 °F

Location of SarajevoLocation

Historic Weather in Sarajevo — Graph

°F

Sarajevo temperature yesterday

Maximum temperature yesterday: 50 °F (at 2:00 PM)
Minimum temperature yesterday: 30 °F (at 1:00 AM)
Average temperature yesterday: 36 °F

Past Weeks' High & Low Weather Summary

 TemperatureHumidityPressure
High52 °F (Dec 14, 2:00 PM)100% (Dec 5, 6:30 PM)30.30 "Hg (Dec 5, 6:30 PM)
Low23 °F (Dec 13, 7:30 AM)58% (Dec 13, 2:00 PM)29.80 "Hg (Dec 17, 3:00 AM)
Average38 °F91%30.09 "Hg
* Reported Dec 5 5:00 PM — Dec 20 5:30 PM, Sarajevo, Weather by CustomWeather, © 2014

Note: Actual official high and low records may vary slightly from our data, if they occured in-between our weather recording intervals... More about our weather records

Advertising

Sarajevo weather history for previous 24 hours

 ConditionsComfort  
Time TempWeatherWind HumidityBarometerVisibility
5:30 PM
Dec 20
36 °FFog.2 mph93%30.15 "Hg2 mi
5:00 PM37 °FClear.1 mph87%30.15 "Hg5 mi
4:30 PM41 °FClear.2 mph87%30.15 "Hg5 mi
4:00 PM43 °FSnow. Passing clouds.2 mph81%30.18 "HgN/A
3:30 PM43 °FScattered clouds.1 mph81%30.18 "HgN/A
3:00 PM45 °FScattered clouds.2 mph81%30.18 "HgN/A
2:30 PM48 °FScattered clouds.1 mph71%30.18 "HgN/A
2:00 PM46 °FScattered clouds.3 mph76%30.21 "Hg4 mi
1:30 PM45 °FScattered clouds.2 mph81%30.21 "Hg4 mi
1:00 PM41 °FPartly sunny.2 mph100%30.21 "Hg3 mi
12:30 PM41 °FPartly sunny.1 mph100%30.24 "Hg4 mi
12:00 PM39 °FFog.No wind100%30.24 "Hg2 mi
11:30 AM37 °FFog.1 mph100%30.24 "Hg2 mi
11:00 AM37 °FFog.1 mph93%30.27 "Hg2 mi
10:30 AM36 °FFog.1 mph100%30.27 "Hg2 mi
10:00 AM34 °FFog.No wind100%30.27 "Hg2 mi
9:30 AM32 °FIce fog.1 mph100%30.27 "Hg1 mi
9:00 AM30 °FIce fog.1 mph100%30.24 "Hg1 mi
8:30 AM30 °FIce fog.1 mph100%30.24 "Hg1 mi
8:00 AM30 °FIce fog.1 mph100%30.21 "Hg1 mi
7:30 AM30 °FIce fog.No wind100%30.21 "Hg1 mi
7:00 AM30 °FIce fog.1 mph100%30.21 "Hg1 mi
6:30 AM30 °FIce fog.1 mph100%30.18 "Hg1 mi
6:00 AM30 °FIce fog.2 mph100%30.15 "Hg0 mi
5:30 AM30 °FIce fog.2 mph100%30.15 "Hg0 mi
5:00 AM30 °FIce fog.2 mph100%30.15 "Hg1 mi
4:00 AM30 °FIce fog.2 mph100%30.15 "Hg0 mi
3:00 AM30 °FIce fog.1 mph100%30.15 "Hg0 mi
2:00 AM30 °FIce fog.2 mph100%30.15 "Hg0 mi
1:00 AM30 °FIce fog.3 mph100%30.15 "Hg1 mi
12:00 AM30 °FIce fog.No wind100%30.15 "Hg1 mi
11:00 PM
Dec 19
30 °FIce fog.2 mph100%30.15 "Hg1 mi
10:00 PM34 °FFog.1 mph93%30.18 "Hg1 mi
9:30 PM34 °FFog.No wind93%30.18 "Hg2 mi
9:00 PM32 °FIce fog.1 mph100%30.18 "Hg2 mi
8:30 PM34 °FFog.1 mph100%30.18 "Hg2 mi
8:00 PM36 °FFog.1 mph93%30.18 "Hg3 mi
7:30 PM36 °FFog.No wind93%30.18 "Hg3 mi
7:00 PM36 °FFog.1 mph93%30.18 "Hg3 mi
6:30 PM37 °FFog.1 mph93%30.15 "Hg3 mi
6:00 PM37 °FFog.1 mph93%30.15 "Hg3 mi
Weather by CustomWeather, © 2014

See weather overviewHow to use our weather pages